This demonstration page uses our WeatherBlox Daily Observations layout. Learn more.

Left ArrowRight Arrow

39.08367, -84.50855

Hourly Observations for September 14, 2017

Temp ( °F °C ) Dew Point ( °F °C ) Humidity (%) Winds ( mph kmh ) Pressure ( in mb ) Visibility ( mi km ) Precip ( " mm )
12:24 am 00:24 Cloudy with Light Rain 61 16.1 61 16.1 100 100 S 6 9 29.85 1011 3 5 N/A
12:36 am 00:36 Cloudy with Light Rain 61 16.1 61 16.1 100 100 S 5 7 29.85 1011 5 8 N/A
12:53 am 00:53 Cloudy with Light Rain 61 16.1 61 16.1 100 100 S 3 6 29.84 1011 4 6 0.01 0.25
1:03 am 01:03 Cloudy with Light Rain 61 16.1 61 16.1 100 100 SSW 3 6 29.85 1011 4 6 N/A
1:27 am 01:27 Cloudy 61 16.1 61 16.1 100 100 S 3 6 29.85 1011 10 16 N/A
1:36 am 01:36 Cloudy 61 16.1 61 16.1 100 100 S 3 6 29.85 1011 10 16 N/A
1:49 am 01:49 Cloudy 61 16 61 16 100 100 S 5 7 29.83 1010 10 16 N/A
1:53 am 01:53 Cloudy 61 16.1 61 16.1 100 100 S 3 6 29.83 1010 10 16 N/A
2:53 am 02:53 Cloudy 61 16.1 61 16.1 100 100 S 5 7 29.84 1010 10 16 N/A
3:10 am 03:10 Cloudy 61 16.1 61 16.1 100 100 S 3 6 29.85 1011 10 16 N/A
3:53 am 03:53 Cloudy with Mist and Fog 61 16.1 61 16.1 100 100 S 3 6 29.84 1010 3 5 N/A
4:18 am 04:18 Cloudy with Mist and Fog 61 16.1 61 16.1 100 100 N N/A 29.85 1011 5 8 N/A
4:53 am 04:53 Cloudy with Mist and Fog 61 16.1 61 16.1 100 100 N N/A 29.85 1011 5 8 N/A
5:36 am 05:36 Cloudy 61 16.1 61 16.1 100 100 N N/A 29.88 1012 10 16 N/A
5:45 am 05:45 Cloudy 61 16.1 61 16.1 100 100 N N/A 29.88 1012 10 16 N/A
5:50 am 05:50 Cloudy 61 16 61 16 100 100 N N/A 29.88 1012 10 16 N/A
5:53 am 05:53 Cloudy 61 16.1 61 16.1 100 100 N N/A 29.86 1011 10 16 N/A
6:12 am 06:12 Cloudy 61 16.1 61 16.1 100 100 N N/A 29.88 1012 10 16 N/A
6:28 am 06:28 Cloudy 61 16.1 61 16.1 100 100 N N/A 29.88 1012 10 16 N/A
6:53 am 06:53 Cloudy 61 16.1 61 16.1 100 100 N N/A 29.88 1012 9 14 N/A
7:53 am 07:53 Cloudy 62 16.7 62 16.7 100 100 N N/A 29.90 1013 10 16 N/A
8:00 am 08:00 Cloudy 62 16.7 62 16.7 100 100 N N/A 29.91 1013 10 16 N/A
8:46 am 08:46 Cloudy 62 16.7 62 16.7 100 100 N N/A 29.91 1013 10 16 N/A
8:53 am 08:53 Cloudy with Mist and Fog 63 17.2 62 16.7 97 97 N N/A 29.91 1013 6 10 N/A
9:39 am 09:39 Cloudy with Mist and Fog 63 17.2 61 16.1 93 93 WSW 5 7 29.91 1013 6 10 N/A
9:53 am 09:53 Cloudy with Mist and Fog 64 17.8 61 16.1 90 90 SW 5 7 29.93 1014 6 10 N/A
10:53 am 10:53 Cloudy with Mist and Fog 66 18.9 62 16.7 87 87 SSW 3 6 29.94 1014 10 16 N/A
11:53 am 11:53 Cloudy with Mist and Fog 67 19.4 61 16.1 81 81 N N/A 29.94 1014 10 16 N/A
12:53 pm 12:53 Cloudy with Light Rain 68 20 62 16.7 81 81 N N/A 29.93 1014 10 16 N/A
1:20 pm 13:20 Cloudy 68 20 61 16.1 78 78 WSW 3 6 29.91 1013 10 16 N/A
1:53 pm 13:53 Cloudy 70 21.1 62 16.7 76 76 VRB 5 7 29.93 1014 10 16 N/A
2:53 pm 14:53 Cloudy 69 20.6 62 16.7 78 78 W 6 9 29.93 1014 10 16 N/A
3:53 pm 15:53 Cloudy 70 21.1 62 16.7 76 76 WSW 6 9 29.93 1014 10 16 N/A
4:53 pm 16:53 Mostly Cloudy 72 22.2 63 17.2 73 73 WSW 6 9 29.93 1013 10 16 N/A
5:53 pm 17:53 Mostly Cloudy 72 22.2 63 17.2 73 73 SSW 6 9 29.94 1014 10 16 N/A
6:53 pm 18:53 Mostly Cloudy 70 21.1 63 17.2 79 79 N N/A 29.95 1014 10 16 N/A
7:53 pm 19:53 Cloudy 68 20 63 17.2 84 84 ENE 3 6 29.96 1015 10 16 N/A
8:53 pm 20:53 Cloudy 67 19.4 64 17.8 91 91 NNE 3 6 29.98 1015 10 16 N/A
9:53 pm 21:53 Cloudy 65 18.3 64 17.8 97 97 N N/A 29.99 1016 10 16 N/A
10:53 pm 22:53 Cloudy 65 18.3 65 18.3 100 100 N N/A 30.00 1016 10 16 N/A
11:53 pm 23:53 Cloudy 64 17.8 64 17.8 100 100 N N/A 30.01 1016 10 16 N/A

Powered by AerisWeather